CW9443 Weather Reports


Display with metric or nautical units.
time (UTC)temp
F
wind
direction
speed
MPH
gust
MPH
rain 1hr
in
rain 24hr
in
rain mn
in
humidity
%
barometer
mb
20260502123005 54 252 0.0 0.0 0.00 0.00 0.00 94 1012.4
20260502121601 53 252 0.0 0.0 0.00 0.00 0.00 94 1012.1
20260502114559 53 252 0.0 0.0 0.00 0.00 0.00 94 1012.1
20260502113053 53 252 0.0 0.0 0.00 0.00 0.00 94 1012.0
20260502111558 53 252 0.0 0.0 0.00 0.00 0.00 94 1011.9
20260502104543 54 252 0.0 0.0 0.00 0.00 0.00 93 1011.6
20260502103043 54 252 0.0 0.0 0.00 0.00 0.00 93 1011.6
20260502101556 54 252 0.0 0.0 0.00 0.00 0.00 93 1011.5
20260502091506 54 252 0.0 0.0 0.00 0.00 0.00 91 1011.6
20260502070021 55 252 0.0 0.0 0.00 0.00 0.00 91 1012.0
20260502063050 55 252 0.0 0.0 0.00 0.00 0.00 91 1012.0
20260502031548 58 252 0.0 0.0 0.00 0.00 0.00 84 1011.3
20260502030045 59 252 0.0 0.0 0.00 0.00 0.00 82 1011.2
20260502023009 60 252 0.0 0.0 0.00 0.00 0.00 79 1011.2
20260502021508 62 252 0.0 0.0 0.00 0.00 0.00 76 1011.0
20260502020008 64 272 0.0 0.0 0.00 0.00 0.00 73 1010.8
20260502013056 65 276 0.0 0.0 0.00 0.00 0.00 71 1010.7
20260502011556 66 232 0.0 0.0 0.00 0.00 0.00 68 1010.8
20260502010108 68 221 0.0 0.0 0.00 0.00 0.00 68 1010.7
20260502004559 68 220 0.0 0.0 0.00 0.00 0.00 67 1010.9
20260502003058 68 227 0.0 0.0 0.00 0.00 0.00 67 1010.8
20260502000051 69 246 0.0 0.0 0.00 0.00 0.00 65 1010.9
20260501234550 70 230 0.0 0.0 0.00 0.00 0.00 63 1010.9
20260501233054 70 242 0.0 0.0 0.00 0.00 0.00 63 1010.8
20260501230100 71 237 1.0 0.0 0.00 0.00 0.00 62 1010.9
20260501224551 72 187 1.0 0.0 0.00 0.00 0.00 60 1011.1
20260501223057 72 211 1.0 0.0 0.00 0.00 0.00 61 1011.2
20260501220057 74 223 1.0 0.0 0.00 0.00 0.00 58 1011.7
20260501214559 74 196 1.0 0.0 0.00 0.00 0.00 58 1011.7
20260501213058 74 227 0.0 0.0 0.00 0.00 0.00 57 1011.9
20260501210015 73 232 0.0 0.0 0.00 0.00 0.00 58 1012.1
20260501204513 73 209 0.0 0.0 0.00 0.00 0.00 59 1012.1
20260501203012 73 240 2.0 0.0 0.00 0.00 0.00 61 1012.2
20260501200050 72 240 3.0 0.0 0.00 0.00 0.00 61 1012.4
20260501194558 72 226 2.0 0.0 0.00 0.00 0.00 60 1012.6
20260501193048 72 210 3.0 0.0 0.00 0.00 0.00 60 1012.6
20260501190051 72 238 1.0 0.0 0.00 0.00 0.00 61 1012.9
20260501184547 71 219 1.0 0.0 0.00 0.00 0.00 62 1013.1
20260501183046 70 213 1.0 0.0 0.00 0.00 0.00 64 1013.1
20260501180045 68 242 0.0 0.0 0.00 0.00 0.00 67 1013.4
20260501174545 68 244 0.0 0.0 0.00 0.00 0.00 69 1013.5
20260501173043 67 244 0.0 0.0 0.00 0.00 0.00 70 1013.6
20260501170039 66 244 0.0 0.0 0.00 0.00 0.00 71 1013.8
20260501164530 64 244 0.0 0.0 0.00 0.00 0.00 76 1013.9
20260501163029 64 244 0.0 0.0 0.00 0.00 0.00 75 1013.9
20260501161627 63 244 0.0 0.0 0.00 0.00 0.00 79 1013.6
20260501160034 62 244 0.0 0.0 0.00 0.00 0.00 79 1013.6
20260501154535 62 244 0.0 0.0 0.00 0.00 0.00 80 1013.6
20260501153036 60 244 0.0 0.0 0.00 0.00 0.00 84 1013.5
20260501151630 58 244 0.0 0.0 0.00 0.00 0.00 88 1013.3
20260501150025 58 244 0.0 0.0 0.00 0.00 0.00 88 1013.2